TimeMDT,TemperatureF,Dew PointF,Humidity,Sea Level PressureIn,VisibilityMPH,Wind Direction,Wind SpeedMPH,Gust SpeedMPH,PrecipitationIn,Events,Conditions,WindDirDegrees,DateUTC
12:53 AM,57.0,37.9,49,29.97,10.0,Calm,Calm,-,N/A,,Clear,0,2013-05-14 06:53:00
1:53 AM,53.1,37.0,55,29.97,10.0,East,3.5,-,N/A,,Clear,100,2013-05-14 07:53:00
2:53 AM,53.1,37.0,55,29.96,10.0,Calm,Calm,-,N/A,,Clear,0,2013-05-14 08:53:00
3:53 AM,48.9,37.0,64,29.97,10.0,SSE,3.5,-,N/A,,Clear,160,2013-05-14 09:53:00
4:53 AM,48.0,37.0,66,29.97,10.0,ESE,4.6,-,N/A,,Clear,110,2013-05-14 10:53:00
5:53 AM,45.0,37.0,74,29.99,10.0,South,3.5,-,N/A,,Clear,170,2013-05-14 11:53:00
6:53 AM,48.9,37.9,66,30.00,10.0,SE,3.5,-,N/A,,Clear,130,2013-05-14 12:53:00
7:53 AM,54.0,41.0,62,30.00,10.0,North,3.5,-,N/A,,Clear,350,2013-05-14 13:53:00
8:53 AM,60.1,39.0,46,30.00,10.0,Calm,Calm,-,N/A,,Clear,0,2013-05-14 14:53:00
9:53 AM,64.9,39.0,39,29.97,10.0,Variable,3.5,-,N/A,,Clear,0,2013-05-14 15:53:00
10:53 AM,70.0,39.0,32,29.94,10.0,Calm,Calm,-,N/A,,Clear,0,2013-05-14 16:53:00
11:53 AM,77.0,37.9,24,29.89,10.0,Variable,3.5,-,N/A,,Unknown,0,2013-05-14 17:53:00
12:53 PM,79.0,32.0,18,29.85,-9999.0,Calm,Calm,-,N/A,,Clear,0,2013-05-14 18:53:00
1:53 PM,82.9,34.0,17,29.84,10.0,NW,23.0,31.1,N/A,,Clear,320,2013-05-14 19:53:00
2:53 PM,80.1,33.1,18,29.82,10.0,NNW,10.4,21.9,N/A,,Clear,340,2013-05-14 20:53:00
3:53 PM,81.0,32.0,17,29.81,10.0,WSW,21.9,28.8,N/A,,Clear,250,2013-05-14 21:53:00
4:11 PM,77.0,33.8,21,30.00,10.0,West,25.3,35.7,N/A,,Partly Cloudy,270,2013-05-14 22:11:00
4:53 PM,75.0,35.1,23,29.84,10.0,West,23.0,32.2,N/A,,Clear,260,2013-05-14 22:53:00
5:53 PM,75.9,32.0,20,29.83,10.0,WSW,10.4,-,N/A,,Clear,240,2013-05-14 23:53:00
6:21 PM,73.4,35.6,25,29.99,10.0,East,11.5,-,N/A,,Clear,90,2013-05-15 00:21:00
6:53 PM,73.0,37.9,28,29.83,10.0,East,13.8,-,N/A,,Clear,90,2013-05-15 00:53:00
7:53 PM,70.0,37.9,31,29.84,10.0,East,13.8,19.6,N/A,,Clear,80,2013-05-15 01:53:00
8:53 PM,66.9,39.0,36,29.84,10.0,East,17.3,24.2,N/A,,Clear,80,2013-05-15 02:53:00
9:53 PM,64.9,39.0,39,29.87,10.0,East,13.8,21.9,N/A,,Clear,80,2013-05-15 03:53:00
10:53 PM,59.0,39.9,49,29.87,10.0,East,6.9,-,N/A,,Mostly Cloudy,100,2013-05-15 04:53:00
11:53 PM,59.0,42.1,53,29.86,10.0,ESE,4.6,-,N/A,,Partly Cloudy,110,2013-05-15 05:53:00